• In Belarus
  • List of Countries
  • For 7 days
  • Water Temperature
  • Weather Map
  • Weather Widgets
  • user-avatar
    Login

    Hourly Weather Dorchester

    Today, 20 January, Monday

    Time Temperature Precipitation Wind Pressure Humidity
    00:00 +2°C° 0 mm 1 mps 782 mmHg 78%
    01:00 +2°C° 0 mm 1 mps 781 mmHg 76%
    02:00 +2°C° 0 mm 1 mps 781 mmHg 75%
    03:00 +2°C° 0 mm 1 mps 781 mmHg 73%
    04:00 +2°C° 0 mm 1 mps 781 mmHg 72%
    05:00 +2°C° 0 mm 1 mps 781 mmHg 72%
    06:00 +2°C° 0 mm 1 mps 781 mmHg 71%
    07:00 +2°C° 0 mm 1 mps 781 mmHg 71%
    08:00 +2°C° 0 mm 1 mps 781 mmHg 71%
    09:00 +3°C° 0 mm 1 mps 781 mmHg 70%
    10:00 +4°C° 0 mm 1 mps 781 mmHg 67%
    11:00 +5°C° 0 mm 1 mps 781 mmHg 63%
    12:00 +7°C° 0 mm 1 mps 781 mmHg 60%
    13:00 +7°C° 0 mm 1 mps 781 mmHg 64%
    14:00 +7°C° 0 mm 1 mps 780 mmHg 67%
    15:00 +7°C° 0 mm 1 mps 780 mmHg 71%
    16:00 +6°C° 0 mm 1 mps 780 mmHg 74%
    17:00 +4°C° 0 mm 1 mps 780 mmHg 76%
    18:00 +3°C° 0 mm 1 mps 779 mmHg 79%
    19:00 +3°C° 0 mm 1 mps 779 mmHg 77%
    20:00 +3°C° 0 mm 1 mps 779 mmHg 76%
    21:00 +2°C° 0 mm 1 mps 779 mmHg 75%
    22:00 +2°C° 0 mm 1 mps 779 mmHg 75%
    23:00 +2°C° 0 mm 1 mps 778 mmHg 75%

    Tomorrow, 21 January, Tuesday

    Time Temperature Precipitation Wind Pressure Humidity
    00:00 +1°C° 0 mm 0 mps 778 mmHg 75%
    01:00 +1°C° 0 mm 0 mps 778 mmHg 77%
    02:00 +2°C° 0 mm 1 mps 778 mmHg 78%
    03:00 +2°C° 0 mm 1 mps 777 mmHg 80%
    04:00 +1°C° 0 mm 0 mps 777 mmHg 82%
    05:00 +1°C° 0 mm 0 mps 777 mmHg 84%
    06:00 0°C° 0 mm 0 mps 777 mmHg 86%
    07:00 +1°C° 0 mm 0 mps 777 mmHg 86%
    08:00 +1°C° 0 mm 0 mps 777 mmHg 86%
    09:00 +1°C° 0 mm 0 mps 777 mmHg 85%
    10:00 +4°C° 0 mm 1 mps 777 mmHg 83%
    11:00 +5°C° 0 mm 1 mps 777 mmHg 80%
    12:00 +6°C° 0 mm 1 mps 777 mmHg 78%
    13:00 +6°C° 0 mm 1 mps 776 mmHg 79%
    14:00 +7°C° 0 mm 1 mps 776 mmHg 81%
    15:00 +7°C° 0 mm 1 mps 776 mmHg 82%
    16:00 +5°C° 0 mm 1 mps 775 mmHg 85%
    17:00 +4°C° 0 mm 1 mps 775 mmHg 87%
    18:00 +3°C° 0 mm 1 mps 775 mmHg 89%
    19:00 +3°C° 0 mm 1 mps 775 mmHg 90%
    20:00 +3°C° 0 mm 1 mps 775 mmHg 90%
    21:00 +1°C° 0 mm 2 mps 775 mmHg 90%
    22:00 +3°C° 0 mm 1 mps 775 mmHg 91%
    23:00 +3°C° 0 mm 1 mps 775 mmHg 92%

    Day after tomorrow, 22 January, Wednesday

    Time Temperature Precipitation Wind Pressure Humidity
    00:00 +3°C° 0 mm 1 mps 775 mmHg 93%
    01:00 +3°C° 0 mm 1 mps 775 mmHg 94%
    02:00 +4°C° 0 mm 1 mps 774 mmHg 95%
    03:00 +3°C° 0 mm 2 mps 774 mmHg 96%
    04:00 +3°C° 0 mm 2 mps 774 mmHg 97%
    05:00 +5°C° 0 mm 1 mps 773 mmHg 97%
    06:00 +5°C° 0 mm 1 mps 773 mmHg 98%
    07:00 +4°C° 0 mm 2 mps 773 mmHg 98%
    08:00 +4°C° 0 mm 2 mps 773 mmHg 98%
    09:00 +4°C° 0 mm 2 mps 774 mmHg 98%
    10:00 +5°C° 0 mm 2 mps 774 mmHg 97%
    11:00 +6°C° 0 mm 2 mps 774 mmHg 95%
    12:00 +7°C° 0 mm 2 mps 774 mmHg 93%
    13:00 +7°C° 0 mm 2 mps 773 mmHg 94%
    14:00 +7°C° 0 mm 2 mps 773 mmHg 94%
    15:00 +7°C° 0 mm 2 mps 773 mmHg 95%
    16:00 +7°C° 0 mm 2 mps 772 mmHg 96%
    17:00 +6°C° 0 mm 2 mps 772 mmHg 96%
    18:00 +6°C° 0 mm 2 mps 772 mmHg 97%
    19:00 +6°C° 0 mm 2 mps 772 mmHg 97%
    20:00 +6°C° 0 mm 2 mps 772 mmHg 97%
    21:00 +6°C° 0 mm 1 mps 772 mmHg 97%
    22:00 +6°C° 0 mm 1 mps 772 mmHg 98%
    23:00 +6°C° 0 mm 1 mps 772 mmHg 98%

    23 January, Thursday

    Time Temperature Precipitation Wind Pressure Humidity
    00:00 +5°C° 0 mm 2 mps 772 mmHg 98%
    01:00 +5°C° 0 mm 2 mps 771 mmHg 98%
    02:00 +5°C° 0 mm 2 mps 771 mmHg 98%
    03:00 +5°C° 0 mm 2 mps 771 mmHg 98%
    04:00 +5°C° 0 mm 2 mps 770 mmHg 97%
    05:00 +4°C° 0 mm 2 mps 770 mmHg 97%
    06:00 +4°C° 0 mm 2 mps 769 mmHg 97%
    07:00 +4°C° 0 mm 2 mps 769 mmHg 97%
    08:00 +5°C° 0 mm 1 mps 769 mmHg 97%
    09:00 +5°C° 0 mm 1 mps 769 mmHg 97%
    10:00 +6°C° 0 mm 1 mps 768 mmHg 93%
    11:00 +7°C° 0 mm 1 mps 768 mmHg 89%
    12:00 +7°C° 0 mm 2 mps 767 mmHg 85%
    13:00 +7°C° 0 mm 2 mps 767 mmHg 85%
    14:00 +7°C° 0 mm 2 mps 766 mmHg 85%
    15:00 +8°C° 0 mm 2 mps 766 mmHg 85%
    16:00 +7°C° 0 mm 2 mps 765 mmHg 88%
    17:00 +5°C° 0 mm 2 mps 765 mmHg 91%
    18:00 +4°C° 0 mm 2 mps 764 mmHg 94%
    19:00 +5°C° 0 mm 1 mps 764 mmHg 95%
    20:00 +5°C° 0 mm 1 mps 764 mmHg 95%
    21:00 +4°C° 0 mm 1 mps 764 mmHg 95%
    22:00 +4°C° 0 mm 1 mps 763 mmHg 95%
    23:00 +4°C° 0 mm 1 mps 763 mmHg 95%

    24 January, Friday

    Time Temperature Precipitation Wind Pressure Humidity
    00:00 +2°C° 0 mm 0 mps 763 mmHg 95%
    01:00 +3°C° 0 mm 1 mps 762 mmHg 95%
    02:00 +3°C° 0 mm 1 mps 762 mmHg 95%
    03:00 +3°C° 0 mm 1 mps 762 mmHg 95%
    04:00 +3°C° 0 mm 1 mps 761 mmHg 95%
    05:00 +3°C° 0 mm 1 mps 761 mmHg 95%
    06:00 +3°C° 0 mm 1 mps 761 mmHg 95%
    07:00 +3°C° 0 mm 1 mps 761 mmHg 95%
    08:00 +3°C° 0 mm 0 mps 761 mmHg 94%
    09:00 +4°C° 0 mm 0 mps 761 mmHg 94%
    10:00 +5°C° 0 mm 1 mps 761 mmHg 92%
    11:00 +6°C° 0 mm 1 mps 761 mmHg 90%
    12:00 +7°C° 0 mm 1 mps 761 mmHg 89%
    13:00 +7°C° 0 mm 1 mps 760 mmHg 89%
    14:00 +7°C° 0 mm 1 mps 760 mmHg 89%
    15:00 +6°C° 0 mm 2 mps 759 mmHg 89%
    16:00 +6°C° 0 mm 1 mps 759 mmHg 91%
    17:00 +6°C° 0 mm 1 mps 759 mmHg 92%
    18:00 +5°C° 0 mm 1 mps 759 mmHg 93%
    19:00 +4°C° 0 mm 2 mps 759 mmHg 93%
    20:00 +4°C° 0 mm 2 mps 759 mmHg 93%
    21:00 +3°C° 0 mm 2 mps 759 mmHg 93%
    22:00 +3°C° 0 mm 2 mps 759 mmHg 93%
    23:00 +3°C° 0 mm 2 mps 758 mmHg 93%

    25 January, Saturday

    Time Temperature Precipitation Wind Pressure Humidity
    00:00 +2°C° 0 mm 2 mps 758 mmHg 93%
    01:00 +2°C° 0 mm 2 mps 757 mmHg 94%
    02:00 +2°C° 0 mm 2 mps 757 mmHg 94%
    03:00 0°C° 0 mm 3 mps 756 mmHg 95%
    04:00 +1°C° 0 mm 3 mps 756 mmHg 95%
    05:00 +1°C° 0 mm 3 mps 755 mmHg 95%
    06:00 +1°C° 0 mm 3 mps 755 mmHg 95%
    07:00 +2°C° 0 mm 3 mps 755 mmHg 95%
    08:00 +3°C° 0 mm 3 mps 754 mmHg 94%
    09:00 +4°C° 0 mm 3 mps 754 mmHg 94%
    10:00 +5°C° 0 mm 4 mps 754 mmHg 89%
    11:00 +5°C° 0 mm 5 mps 754 mmHg 84%
    12:00 +5°C° 0 mm 6 mps 753 mmHg 80%
    13:00 +5°C° 0 mm 6 mps 753 mmHg 80%
    14:00 +7°C° 0 mm 6 mps 752 mmHg 81%
    15:00 +7°C° 0 mm 6 mps 752 mmHg 82%
    16:00 +7°C° 0 mm 6 mps 751 mmHg 84%
    17:00 +5°C° 0 mm 6 mps 751 mmHg 86%
    18:00 +5°C° 0 mm 6 mps 751 mmHg 88%
    19:00 +5°C° 0.1 mm 6 mps 751 mmHg 89%
    20:00 +5°C° 0.1 mm 6 mps 751 mmHg 91%
    21:00 +5°C° 0.1 mm 6 mps 751 mmHg 92%
    22:00 +6°C° 0 mm 5 mps 751 mmHg 92%
    23:00 +5°C° 0 mm 5 mps 751 mmHg 92%
    Show more